Weather History for KALS - October, 2011

Change the Weather History Date:

Sunday, October 30, 2011

  Actual Average Record
Temperature  
Mean Temperature 38 °F 38 °F  
Max Temperature 61 °F 56 °F 73 °F (1950)
Min Temperature 14 °F 19 °F -2 °F (1967)
Degree Days  
Heating Degree Days 27 27  
Month to date heating degree days 641 650  
Since 1 July heating degree days 922 1081  
Cooling Degree Days 0 0  
Month to date cooling degree days 0 0  
Year to date cooling degree days 182 51  
Moisture  
Dew Point 15 °F    
Average Humidity 49    
Maximum Humidity 80    
Minimum Humidity 17    
Precipitation  
Precipitation 0.00 in 0.02 in 0.74 in (1991)
Month to date precipitation 0.48 0.66  
Year to date precipitation 3.82 6.52  
Snow  
Snow 0.00 in 0.10 in 13.10 in (1991)
Month to date snowfall 1.8 2.0  
Since 1 July snowfall 1.8 2.0  
Since 1 September snowfall 1.8 2.0  
Snow Depth 0.00 in    
Sea Level Pressure  
Sea Level Pressure 30.25 in    
Wind  
Wind Speed 4 mph (SSW)    
Max Wind Speed 9 mph    
Max Gust Speed 12 mph    
Visibility 10 miles    
Events      
T = Trace of Precipitation, MM = Missing Value Source: NWS Daily Summary

Daily Weather History Graph

Daily Weather History Graph

Search for Another Location

Airport or City:

Trip Planner

Search our weather history database for the weather conditions in past years. The results will help you decide how hot, cold, wet, or windy it might be!

Date:

Astronomy

Oct. 30, 2011 Rise Set
Actual Time 7:25 AM MDT 6:07 PM MDT
Civil Twilight 6:59 AM MDT 6:34 PM MDT
Nautical Twilight 6:28 AM MDT 7:05 PM MDT
Astronomical Twilight 5:57 AM MDT 7:35 PM MDT
Moon 11:44 AM MDT (10/30) 9:42 PM MDT (10/30)
Length of Visible Light 11h 35m
Length of Day
10h 41m
Waxing Crescent, 20% of the Moon is Illuminated
Oct 30
Waxing Crescent
Nov 2
First Quarter
Nov 10
Full
Nov 18
Last Quarter
Nov 24
New

Hourly Weather History & Observations

Time (MDT) Temp. Windchill Dew Point Humidity Pressure Visibility Wind Dir Wind Speed Gust Speed Precip Events Conditions
12:52 AM 30.0 °F 25.2 °F 12.9 °F 49% 30.17 in 10.0 mi SSW 4.6 mph - N/A   Clear
1:52 AM 26.6 °F 19.1 °F 14.0 °F 59% 30.25 in 10.0 mi West 6.9 mph - N/A   Clear
2:52 AM 26.1 °F 19.4 °F 16.0 °F 66% 30.19 in 10.0 mi West 5.8 mph - N/A   Clear
3:52 AM 24.1 °F - 16.0 °F 71% 30.20 in 10.0 mi Calm Calm - N/A   Clear
4:52 AM 19.0 °F 9.0 °F 12.0 °F 74% 30.25 in 10.0 mi SW 8.1 mph - N/A   Clear
5:52 AM 21.0 °F 14.6 °F 15.1 °F 78% 30.26 in 10.0 mi WSW 4.6 mph - N/A   Clear
6:52 AM 19.0 °F - 14.0 °F 81% 30.29 in 10.0 mi Calm Calm - N/A   Clear
7:52 AM 17.1 °F 7.6 °F 12.0 °F 81% 30.33 in 10.0 mi SSW 6.9 mph - N/A   Clear
8:52 AM 34.0 °F 31.0 °F 19.0 °F 54% 30.28 in 10.0 mi West 3.5 mph - N/A   Clear
9:52 AM 44.1 °F 41.5 °F 19.9 °F 38% 30.26 in 10.0 mi WNW 4.6 mph - N/A   Clear
10:52 AM 48.9 °F - 17.1 °F 28% 30.22 in 10.0 mi North 4.6 mph - N/A   Clear
11:52 AM 51.1 °F - 16.0 °F 25% 30.23 in 10.0 mi NE 3.5 mph - N/A   Clear
12:52 PM 54.0 °F - 16.0 °F 22% 30.22 in 10.0 mi Calm Calm - N/A   Clear
1:52 PM 57.9 °F - 16.0 °F 19% 30.20 in 10.0 mi Variable 3.5 mph - N/A   Clear
2:52 PM 60.1 °F - 16.0 °F 18% 30.18 in 10.0 mi North 5.8 mph - N/A   Clear
3:52 PM 60.1 °F - 16.0 °F 18% 30.18 in 10.0 mi Calm Calm - N/A   Clear
4:52 PM 60.1 °F - 15.1 °F 17% 30.19 in 10.0 mi Calm Calm - N/A   Clear
5:52 PM 55.0 °F - 15.1 °F 21% 30.22 in 10.0 mi Calm Calm - N/A   Clear
6:52 PM 45.0 °F 41.8 °F 15.1 °F 30% 30.30 in 10.0 mi East 5.8 mph - N/A   Clear
7:52 PM 36.0 °F 29.0 °F 12.9 °F 39% 30.37 in 10.0 mi SSE 9.2 mph - N/A   Clear
8:52 PM 33.1 °F 26.1 °F 14.0 °F 46% 30.30 in 10.0 mi ESE 8.1 mph - N/A   Clear
9:52 PM 32.0 °F - 14.0 °F 48% 30.27 in 10.0 mi Calm Calm - N/A   Clear
10:52 PM 27.0 °F 20.5 °F 17.1 °F 66% 30.28 in 10.0 mi ESE 5.8 mph - N/A   Clear
11:52 PM 26.1 °F 19.4 °F 17.1 °F 69% 30.27 in 10.0 mi SE 5.8 mph - N/A   Clear